Location: Praha
(50.0830°N, 14.4670°E)
Time: 12:50:17
(UTC+02:00)

ISS - Pass Details

Date: 25 September 2021
Orbit: 419 x 423 km, 51.6° (Epoch: 21 September)

Event Time Altitude Azimuth Distance (km) Brightness Sun altitude
Rises 20:13:13 0° 272° (W) 2,365 1.8 -13.5°
Reaches altitude 10° 20:15:20 10° 276° (W) 1,502 0.4 -13.8°
Maximum altitude 20:18:41 64° 359° (N) 468 -3.5 -14.4°
Enters shadow 20:20:21 27° 74° (ENE) 852 -2.7 -14.6°
